Regional Weather Roundup
Issued by NWS Binghamton, NY

Home | Current Version | Previous Version | Text Only | Print | Product List | Glossary On
Versions: 1 2 3 4 5 6 7 8 9 10 11 12 13 14 15 16 17 18 19 20 21 22 23 24 25 26 27 28
000
ASUS41 KBGM 291010
RWRBGM

REGIONAL WEATHER ROUNDUP
NATIONAL WEATHER SERVICE BINGHAMTON NY
600 AM EDT FRI JUL 29 2016

Note: "fair" indicates few or no clouds below 12,000 feet with no
significant weather and/or obstructions to visibility.

* = Station(s) that does not report precipitation, such as rain,
snow, etc, also no thunder or fog.

NYZ009-015>018-022>025-036-037-044>046-055>057-062-291100
...Central New York...

CITY           SKY/WX    TMP DP  RH WIND       PRES   REMARKS
Binghamton     PTCLDY    66  64  93 N3        29.90R
Cortland       FAIR      61  61 100 CALM      29.91R
Dansville      PTCLDY    62  60  93 CALM      29.93R
Elmira         CLEAR     61  57  87 CALM      29.89R
Ithaca         CLEAR     59  58  96 CALM      29.92R
Hamilton       CLEAR     63  61  94 CALM      29.91R
Hornell        CLEAR     61  57  88 CALM      29.97R FOG
Monticello     CLOUDY    66  66 100 E3        29.89S
Norwich        PTCLDY    64  63  94 CALM      29.91R
Oneonta        CLEAR     66  66 100 CALM      29.92R
Penn Yan       CLEAR     62  59  90 CALM      29.91R
Rome           CLEAR     64  64 100 CALM      29.89S
Sidney         MOCLDY    66  66 100 CALM      29.89R FOG
Syracuse       PTCLDY    66  66 100 CALM      29.88R FOG
$$

PAZ038>040-043-044-047-048-072-291100
...Northeast Pennsylvania...

CITY           SKY/WX    TMP DP  RH WIND       PRES   REMARKS
Hazleton       CLOUDY    66  64  94 CALM      29.92R FOG
Scranton       CLOUDY    70  69  97 CALM      29.86R FOG
$$
&&
KEY
WCI = Wind Chill Index
VSB = Visibility
HX  = Heat Index
$$




USA.gov is the U.S. government's official web portal to all federal, state and local government web resources and services.